Back to catalog

STARLINK-31933

AliveCommunicationsVLEO
NORAD 59874·PAYLOAD·🇺🇸 United States

Launched May 24, 2024 from Cape Canaveral Space Force Station

Loading…

Next Passes (next 24 hours)

TLE

FreshSource: CelesTrak SupGP

Epoch: Sep 14, 2026, 13:57 UTC

1 59874C 24098S   26257.58173611  .00056058  00000+0  20304-2 0  2571
2 59874  43.0009 291.1787 0001557 276.5740 148.3740 15.27549991    15

Track STARLINK-31933 in real time with AllMySat

Download on the App Store